Hourly Data Report for October 18, 2013

All times are specified in Local Standard Time (LST). Add 1 hour to adjust for Daylight Saving Time where and when it is observed.

ST LEONARD CS
NEW BRUNSWICK

47°09'28.050" N
67°49'55.014" W
245.00 m
810I001
71019
WIY

Download Data

Hourly Data (October 2013)
Hourly Data Report for October 18, 2013
Temp Definition
°C
Dew Point Temp Definition
°C
Rel Hum Definition
%
Wind Dir Definition
10's deg

Wind Spd Definition
km/h
Visibility Definition
km
Stn Press Definition
kPa
Hmdx Definition


Wind Chill Definition


Weather Definition


TIME
00:00 9.2 7.7 90 23 7   97.63     LegendNANA
01:00 8.3 7.3 93 22 7   97.65     LegendNANA
02:00 6.2 5.7 97 5 2   97.55     LegendNANA
03:00 6.5 6.2 98 18 7   97.62     LegendNANA
04:00 6.1 5.7 97 17 7   97.59     LegendNANA
05:00 6.4 5.9 97 12 4   97.54     LegendNANA
06:00 6.0 5.6 97 13 4   97.47     LegendNANA
07:00 7.3 7.0 98 18 4   97.52     LegendNANA
08:00 7.6 7.3 98 9 7   97.41     LegendNANA
09:00 8.5 8.2 98 16 2   97.46     LegendNANA
10:00 9.1 8.7 97   0   97.43     LegendNANA
11:00 9.6 9.0 96   0   97.37     LegendNANA
12:00 9.8 9.1 95   0   97.32     LegendNANA
13:00 9.8 9.3 97   0   97.33     LegendNANA
14:00 10.7 9.7 94 26 4   97.28     LegendNANA
15:00 11.4 9.6 89 30 6   97.28     LegendNANA
16:00 11.5 9.5 88 26 7   97.29     LegendNANA
17:00 11.1 9.7 91 23 4   97.33     LegendNANA
18:00 10.6 9.6 94 17 4   97.33     LegendNANA
19:00 9.9 9.1 95 20 4   97.34     LegendNANA
20:00 10.1 9.0 93 22 6   97.38     LegendNANA
21:00 9.0 8.1 94 22 6   97.41     LegendNANA
22:00 9.0 7.8 92 21 7   97.43     LegendNANA
23:00 8.5 7.4 93 23 6   97.46     LegendNANA

Notes on Data Quality.

Legend

  • E = Estimated
  • M = Missing
  • NA = Not Available
  • ‡ = Partner data that is not subject to review by the National Climate Archives
Date modified: